Atlantic - Newfoundland: Past 24 Hour Conditions

 

St. Anthony Airport

03:30 AM NDT 21 August 2014
This table is a summary of hourly weather conditions for the past 24 hours.
Date / Time
(NDT)
Wind(knots) Conditions Visibility(km) Pressure(kPa) Air tempC) Relative humidity(%) Dew pointC)
21 August 2014
3:30 N 15 Cloudy 16 101.4 12 97 12
2:30 N 13 gust 20 Cloudy 16 101.4 13 96 12
1:30 N 13 gust 19 Cloudy 13 101.4 12 98 12
0:30 N 13 gust 18 Mist 10 101.3 12 98 12
20 August 2014
23:30 N 14 gust 19 Mist 3 101.3 12 98 12
22:30 NNE 16 gust 21 Light Rain 2 101.3 12 98 12
21:30 NNE 11 Light Rain 2 101.4 13 98 12
20:30 N 10 gust 16 Light Rain 2 101.3 13 98 12
19:30 N 12 Light Rain 2 101.3 13 98 13
18:30 NNE 12 Fog 0.8 101.3 13 98 13
17:30 NNE 15 Light Rain 0.6 101.2 13 98 13
16:30 NNE 12 Light Rain 0.8 101.2 14 97 13
15:30 NNE 10 gust 18 Light Rain 1 101.1 14 96 13
14:30 N 11 Cloudy 16 101.1 15 95 14
13:30 NNE 11 Cloudy 13 101.1 15 95 14
12:30 NNE 11 Light Rain 0.8 101.1 14 98 14
11:30 NNE 15 Light Rain 0.6 101.1 13 98 13
10:30 NNE 13 Fog 0.8 101.0 13 99 13
9:30 NE 12 Mist 2 101.0 13 99 13
8:30 NNE 12 Fog 0.4 100.9 13 99 13
7:30 NNE 14 Fog 0.6 100.9 12 99 12
6:30 NE 10 Light Rain 0.6 100.9 12 99 12
5:30 NNE 8 Mist 1 100.8 12 99 12
4:30 NNE 8 Mist 1 100.8 12 98 12
3:30 N 11 Mist 1 100.8 12 98 12
 
Map of Atlantic - Newfoundland marine weather areas Southwestern Grand Banks - 44138 Banquereau - 44139 Tail of the Bank - 44140 Nickerson Bank - 44251 Northeast Burgeo Bank - 44255 Blanc-Sablon Airport Cap Whittle Chevery Natashquan Airport Heath Point Miscou Island Grand Étang Ingonish Beach North Mountain St.Paul Island J.A. Douglas McCurdy Sydney Airport Charlottetown Airport East Point North Cape Argentia Bonavista Burgeo Cape Race Corner Brook Daniel's Harbour Englee Ferolle Point La Scie Port aux Basques Rocky Harbour Sagona Island St. Anthony Airport St. John's Int'l Airport St. Lawrence Stephenville Airport Twillingate Winterland Wreckhouse Cartwright Airport Mary's Harbour Grates Cove Pool's Island Marticot Island Long Pond Îles de la Madeleine Airport
Legend: buoyBuoy land stationLand Station